Weather History for Pawtucket, RI

Change the Weather History Date:

Saturday, April 27, 2013

  Actual Average Record
Temperature  
Mean Temperature 48 °F -  
Max Temperature 60 °F 60 °F 75 °F (2011)
Min Temperature 35 °F 40 °F 28 °F (2002)
Degree Days  
Heating Degree Days 18    
Moisture  
Dew Point 34 °F    
Average Humidity 61    
Maximum Humidity 93    
Minimum Humidity 31    
Precipitation  
Precipitation 0.00 in - - ()
Sea Level Pressure  
Sea Level Pressure 30.38 in    
Wind  
Wind Speed 4 mph (SE)    
Max Wind Speed 9 mph    
Max Gust Speed 17 mph    
Visibility 9 miles    
Events      
Averages and records for this station are not official NWS values.
T = Trace of Precipitation, MM = Missing Value Source: NWS Daily Summary

Daily Weather History Graph

Daily Weather History Graph

Search for Another Location

Airport:

Trip Planner

Search our weather history database for the weather conditions in past years. The results will help you decide how hot, cold, wet, or windy it might be!

Date:

Astronomy

Apr. 27, 2013 Rise Set
Actual Time 5:47 AM EDT 7:40 PM EDT
Civil Twilight 5:17 AM EDT 8:10 PM EDT
Nautical Twilight 4:40 AM EDT 8:47 PM EDT
Astronomical Twilight 4:01 AM EDT 9:27 PM EDT
Moon 10:08 PM EDT (4/27) 7:01 AM EDT (4/27)
Length of Visible Light 14h 53m
Length of Day
13h 53m
Waning Gibbous, 95% of the Moon is Illuminated
Apr 27
Waning Gibbous
May 2
Last Quarter
May 9
New
May 18
First Quarter
May 25
Full

Hourly Weather History & Observations

Time (EDT) Temp. Windchill Dew Point Humidity Pressure Visibility Wind Dir Wind Speed Gust Speed Precip Events Conditions
12:15 AM 42.8 °F 40.1 °F 35.6 °F 76% 30.42 in 10.0 mi NE 4.6 mph - N/A   Clear
12:35 AM 39.2 °F 37.0 °F 33.8 °F 81% 30.42 in 10.0 mi NE 3.5 mph - N/A   Clear
12:55 AM 39.2 °F 37.0 °F 33.8 °F 81% 30.43 in 10.0 mi NE 3.5 mph - N/A   Clear
1:15 AM 39.2 °F - 33.8 °F 81% 30.42 in 10.0 mi Calm Calm - N/A   Clear
1:35 AM 39.2 °F - 33.8 °F 81% 30.42 in 10.0 mi Calm Calm - N/A   Clear
1:55 AM 37.4 °F - 33.8 °F 87% 30.42 in 10.0 mi Calm Calm - N/A   Clear
2:35 AM 37.4 °F - 33.8 °F 87% 30.41 in 10.0 mi Calm Calm - N/A   Clear
3:15 AM 37.4 °F - 35.6 °F 93% 30.41 in 8.0 mi Calm Calm - N/A   Clear
3:35 AM 37.4 °F - 33.8 °F 87% 30.41 in 5.0 mi Calm Calm - N/A   Clear
3:55 AM 37.4 °F - 33.8 °F 87% 30.41 in 10.0 mi Calm Calm - N/A   Clear
4:16 AM 37.4 °F 34.9 °F 32.0 °F 81% 30.41 in 8.0 mi NNE 3.5 mph - N/A   Clear
4:55 AM 37.4 °F 33.8 °F 33.8 °F 87% 30.39 in 5.0 mi ENE 4.6 mph - N/A   Clear
5:15 AM 37.4 °F - 33.8 °F 87% 30.40 in 5.0 mi Calm Calm - N/A   Clear
5:35 AM 35.6 °F - 32.0 °F 87% 30.40 in 3.0 mi Calm Calm - N/A   Clear
5:55 AM 35.6 °F - 30.2 °F 81% 30.40 in 1.0 mi Calm Calm - N/A   Clear
6:15 AM 35.6 °F - 33.8 °F 93% 30.40 in 1.2 mi Calm Calm - N/A   Clear
6:35 AM 35.6 °F 31.7 °F 33.8 °F 93% 30.40 in 6.0 mi NNE 4.6 mph - N/A   Clear
6:55 AM 39.2 °F - 35.6 °F 87% 30.41 in 5.0 mi Calm Calm - N/A   Clear
7:35 AM 42.8 °F 39.3 °F 39.2 °F 87% 30.42 in 9.0 mi NNW 5.8 mph - N/A   Clear
7:55 AM 44.6 °F 41.4 °F 39.2 °F 81% 30.42 in 10.0 mi NNE 5.8 mph - N/A   Clear
8:15 AM 44.6 °F 41.4 °F 39.2 °F 81% 30.42 in 10.0 mi North 5.8 mph - N/A   Clear
8:35 AM 46.4 °F 43.5 °F 39.2 °F 76% 30.42 in 10.0 mi North 5.8 mph - N/A   Clear
8:55 AM 46.4 °F 44.3 °F 39.2 °F 76% 30.42 in 10.0 mi NNE 4.6 mph - N/A   Clear
9:15 AM 48.2 °F - 39.2 °F 71% 30.42 in 10.0 mi North 3.5 mph - N/A   Clear
9:55 AM 51.8 °F - 37.4 °F 58% 30.42 in 10.0 mi ENE 6.9 mph - N/A   Clear
10:15 AM 53.6 °F - 37.4 °F 54% 30.41 in 10.0 mi SE 8.1 mph - N/A   Clear
10:35 AM 53.6 °F - 35.6 °F 51% 30.42 in 10.0 mi SE 4.6 mph - N/A   Clear
10:55 AM 55.4 °F - 35.6 °F 47% 30.42 in 10.0 mi ESE 9.2 mph - N/A   Clear
11:15 AM 57.2 °F - 37.4 °F 48% 30.42 in 10.0 mi SE 8.1 mph - N/A   Clear
11:35 AM 57.2 °F - 35.6 °F 44% 30.42 in 10.0 mi Calm Calm - N/A   Clear
11:55 AM 57.2 °F - 35.6 °F 44% 30.41 in 10.0 mi SE 8.1 mph - N/A   Clear
12:35 PM 60.8 °F - 33.8 °F 36% 30.40 in 10.0 mi South 5.8 mph - N/A   Partly Cloudy
12:55 PM 60.8 °F - 35.6 °F 39% 30.39 in 10.0 mi SE 8.1 mph - N/A   Partly Cloudy
1:15 PM 60.8 °F - 35.6 °F 39% 30.38 in 10.0 mi East 4.6 mph - N/A   Clear
1:35 PM 60.8 °F - 33.8 °F 36% 30.38 in 10.0 mi SE 3.5 mph - N/A   Clear
1:55 PM 60.8 °F - 33.8 °F 36% 30.37 in 10.0 mi Calm Calm - N/A   Partly Cloudy
2:15 PM 60.8 °F - 33.8 °F 36% 30.36 in 10.0 mi SE 3.5 mph - N/A   Clear
2:35 PM 60.8 °F - 33.8 °F 36% 30.36 in 10.0 mi SE 8.1 mph - N/A   Clear
2:55 PM 60.8 °F - 33.8 °F 36% 30.35 in 10.0 mi SSE 8.1 mph - N/A   Clear
3:15 PM 60.8 °F - 32.0 °F 34% 30.34 in 10.0 mi SSE 6.9 mph - N/A   Partly Cloudy
3:35 PM 60.8 °F - 32.0 °F 34% 30.34 in 10.0 mi SSE 4.6 mph 17.3 mph N/A   Partly Cloudy
3:55 PM 60.8 °F - 30.2 °F 31% 30.34 in 10.0 mi SSE 6.9 mph - N/A   Clear
4:15 PM 59.0 °F - 30.2 °F 34% 30.34 in 10.0 mi SSE 6.9 mph - N/A   Clear
4:35 PM 60.8 °F - 30.2 °F 31% 30.33 in 10.0 mi SSW 8.1 mph - N/A   Clear
4:55 PM 57.2 °F - 30.2 °F 36% 30.33 in 10.0 mi SE 4.6 mph - N/A   Clear
5:35 PM 57.2 °F - 30.2 °F 36% 30.33 in 10.0 mi SSE 8.1 mph - N/A   Partly Cloudy
5:55 PM 55.4 °F - 32.0 °F 41% 30.33 in 10.0 mi SSE 9.2 mph 16.1 mph N/A   Clear
6:15 PM 55.4 °F - 30.2 °F 38% 30.33 in 10.0 mi South 5.8 mph - N/A   Clear
6:35 PM 53.6 °F - 30.2 °F 41% 30.33 in 10.0 mi SE 6.9 mph - N/A   Clear
6:55 PM 51.8 °F - 32.0 °F 47% 30.33 in 10.0 mi SSE 5.8 mph - N/A   Clear
7:35 PM 50.0 °F - 30.2 °F 47% 30.34 in 10.0 mi SSE 3.5 mph - N/A   Clear
7:55 PM 50.0 °F - 30.2 °F 47% 30.33 in 10.0 mi South 4.6 mph - N/A   Clear
8:15 PM 48.2 °F - 30.2 °F 50% 30.34 in 10.0 mi South 4.6 mph - N/A   Clear
8:35 PM 48.2 °F - 32.0 °F 54% 30.34 in 10.0 mi South 5.8 mph - N/A   Clear
8:55 PM 46.4 °F - 32.0 °F 57% 30.34 in 10.0 mi Calm Calm - N/A   Clear
9:15 PM 46.4 °F 45.2 °F 33.8 °F 62% 30.35 in 10.0 mi South 3.5 mph - N/A   Clear
9:55 PM 44.6 °F 42.2 °F 33.8 °F 66% 30.35 in 10.0 mi SSW 4.6 mph - N/A   Clear
10:15 PM 44.6 °F 42.2 °F 33.8 °F 66% 30.35 in 10.0 mi SSW 4.6 mph - N/A   Clear
10:35 PM 44.6 °F 42.2 °F 32.0 °F 61% 30.35 in 10.0 mi SSW 4.6 mph - N/A   Clear
10:55 PM 44.6 °F 42.2 °F 32.0 °F 61% 30.35 in 10.0 mi South 4.6 mph - N/A   Clear
11:15 PM 44.6 °F 43.1 °F 32.0 °F 61% 30.35 in 10.0 mi SSW 3.5 mph - N/A   Clear
11:35 PM 42.8 °F 40.1 °F 32.0 °F 66% 30.35 in 10.0 mi SSW 4.6 mph - N/A   Clear
11:55 PM 42.8 °F 41.1 °F 32.0 °F 66% 30.35 in 10.0 mi SSW 3.5 mph - N/A   Scattered Clouds